Location: Bartlow
(52.0833°N, 0.3167°E)
Time: 04:28:21
(UTC+00:00)

Sich 1 - Pass Details

Date: 26 September 2023
Orbit: 587 x 615 km, 82.5° (Epoch: 29 November)

Event Time Altitude Azimuth Distance (km) Brightness Sun altitude
Rises 05:07:00 0° 345° (NNW) 2,852 6.4 -7.5°
Reaches altitude 10° 05:09:15 10° 339° (NNW) 1,949 5.5 -7.2°
Maximum altitude 05:13:23 47° 266° (W) 802 3.2 -6.6°
Drops below altitude 10° 05:17:32 10° 193° (SSW) 1,952 5.4 -5.9°
Sets 05:19:48 0° 187° (S) 2,856 6.3 -5.6°
